Regional Weather Roundup
Issued by NWS Goodland, KS

Home | Current Version | Previous Version | Graphics & Text | Print | Product List | Glossary On
Versions: 1 2 3 4 5 6 7 8 9 10 11 12 13 14 15 16 17 18 19 20 21 22 23 24 25 26 27 28 29 30 31 32 33 34 35 36 37 38 39 40 41 42 43 44 45 46 47 48 49 50
000
ASUS43 KGLD 291659
RWRGLD

GOODLAND FORECAST AREA HOURLY WEATHER ROUNDUP
NATIONAL WEATHER SERVICE GOODLAND KS
1100 AM MDT SUN MAY 29 2016

...OFFICIAL OBSERVATIONS...

CITY           SKY/WX    TMP DP  RH WIND       PRES   REMARKS
GOODLAND KS    SUNNY     76  52  43 S16G22    30.12F
HILL CITY KS   SUNNY     83  56  39 SW12      30.10F
IMPERIAL NEB   SUNNY     73  56  54 MISG      30.11F
MCCOOK NEB     SUNNY     76  58  53 MISG      30.10F
AKRON CO       SUNNY     71  44  37 VRB6      30.15F
BURLINGTON CO  SUNNY     76  50  40 S17       30.14F
LIMON CO       CLOUDY    68  47  46 CALM      30.18F
$$

...UNOFFICIAL OBSERVATIONS...

CITY           SKY/WX    TMP DP  RH WIND       PRES   REMARKS
GOVE KS          N/A     79  32  18 MISG        N/A
LENORA KS        N/A     79  32  18 MISG        N/A
SHARON SPRINGS   N/A     75  58  54 S12         N/A
KIT CARSON CO    N/A     71  51  49 MISG        N/A
YUMA CO          N/A     74  48  39 CALM        N/A
$$




USA.gov is the U.S. government's official web portal to all federal, state and local government web resources and services.